FLI425 ENZV-EKVG

Flight info

Callsign FLI425
Flight time 1h 15m
Altitude 34000
Route ALUVA DCT GUNPA/M075F340 DCT ROBUR
Aircraft A320/M-SDE3FGHIRWY/LB1

Departure

Time 2026-04-28 18:03
Airport Stavanger Airport, Sola (ENZV)

Arrival

Time 2026-04-28 19:19
Airport Vágar Airport (EKVG)
Time Latitude Longitude Altitude Speed Heading
2026-04-28 17:22 58.88417 5.62896 30 ft 0 kts 225°
2026-04-28 17:52 58.88432 5.62924 24 ft 4 kts 225°
2026-04-28 17:52 58.88447 5.62951 25 ft 1 kts 225°
2026-04-28 17:53 58.88446 5.62951 25 ft 0 kts 225°
2026-04-28 17:54 58.88445 5.62949 25 ft 1 kts 223°
2026-04-28 17:54 58.88440 5.62960 29 ft 1 kts 128°
2026-04-28 17:55 58.88445 5.62981 28 ft 4 kts 68°
2026-04-28 17:55 58.88453 5.63035 28 ft 10 kts 83°
2026-04-28 17:55 58.88403 5.63178 28 ft 13 kts 136°
2026-04-28 17:55 58.88315 5.63257 29 ft 17 kts 165°
2026-04-28 17:56 58.88207 5.63304 30 ft 15 kts 176°
2026-04-28 17:56 58.88111 5.63248 28 ft 13 kts 215°
2026-04-28 17:56 58.88054 5.63205 28 ft 10 kts 169°
2026-04-28 17:56 58.88016 5.63275 29 ft 2 kts 127°
2026-04-28 17:57 58.88016 5.63276 29 ft 0 kts 127°
2026-04-28 17:57 58.88014 5.63280 29 ft 0 kts 131°
2026-04-28 17:59 58.87959 5.63237 29 ft 0 kts 101°
2026-04-28 17:59 58.87953 5.63282 29 ft 6 kts 108°
2026-04-28 17:59 58.87916 5.63341 31 ft 11 kts 176°
2026-04-28 18:00 58.87863 5.63306 31 ft 5 kts 203°
2026-04-28 18:00 58.87803 5.63288 31 ft 15 kts 179°
2026-04-28 18:00 58.87659 5.63294 31 ft 22 kts 179°
2026-04-28 18:00 58.87511 5.63297 31 ft 20 kts 180°
2026-04-28 18:01 58.87377 5.63303 31 ft 18 kts 180°
2026-04-28 18:01 58.87257 5.63305 31 ft 17 kts 180°
2026-04-28 18:01 58.87149 5.63306 32 ft 14 kts 178°
2026-04-28 18:01 58.87057 5.63317 31 ft 12 kts 167°
2026-04-28 18:02 58.86972 5.63421 32 ft 17 kts 134°
2026-04-28 18:02 58.86952 5.63609 36 ft 12 kts 89°
2026-04-28 18:02 58.86954 5.63750 37 ft 10 kts 80°
2026-04-28 18:02 58.87015 5.63801 36 ft 17 kts 360°
2026-04-28 18:03 58.87402 5.63782 34 ft 95 kts 360°
2026-04-28 18:03 58.88291 5.63764 35 ft 157 kts 360°
2026-04-28 18:03 58.89420 5.63765 652 ft 159 kts 356°
2026-04-28 18:03 58.90507 5.63754 1379 ft 155 kts 356°
2026-04-28 18:04 58.91601 5.63713 1958 ft 163 kts 357°
2026-04-28 18:04 58.92810 5.63663 2269 ft 185 kts 358°
2026-04-28 18:04 58.94187 5.63609 2563 ft 210 kts 358°
2026-04-28 18:04 58.95710 5.63558 2956 ft 234 kts 358°
2026-04-28 18:05 58.97395 5.63502 3606 ft 247 kts 359°
2026-04-28 18:05 58.98561 5.63466 4239 ft 249 kts 359°
2026-04-28 18:05 59.00881 5.63395 5423 ft 254 kts 359°
2026-04-28 18:05 59.02659 5.63336 6283 ft 258 kts 358°
2026-04-28 18:06 59.04460 5.63210 7139 ft 260 kts 351°
2026-04-28 18:06 59.06138 5.61906 7931 ft 265 kts 323°
2026-04-28 18:06 59.07286 5.59094 8723 ft 273 kts 294°
2026-04-28 18:06 59.07587 5.55410 9512 ft 282 kts 272°
2026-04-28 18:07 59.07554 5.51577 10311 ft 287 kts 272°
2026-04-28 18:07 59.07509 5.47647 10867 ft 298 kts 272°
2026-04-28 18:07 59.07463 5.43451 11077 ft 321 kts 272°
2026-04-28 18:07 59.07413 5.39024 11572 ft 332 kts 272°
2026-04-28 18:08 59.07358 5.34499 12239 ft 337 kts 272°
2026-04-28 18:08 59.07304 5.29914 12923 ft 342 kts 273°
2026-04-28 18:08 59.07251 5.25329 13603 ft 346 kts 274°
2026-04-28 18:08 59.07197 5.20555 14281 ft 351 kts 274°
2026-04-28 18:09 59.07145 5.15855 14862 ft 355 kts 274°
2026-04-28 18:09 59.07125 5.11044 15454 ft 356 kts 280°
2026-04-28 18:09 59.07683 5.06434 15988 ft 347 kts 300°
2026-04-28 18:09 59.08975 5.02565 16560 ft 339 kts 319°
2026-04-28 18:10 59.10822 4.99812 17153 ft 333 kts 337°
2026-04-28 18:10 59.12998 4.98409 17744 ft 330 kts 354°
2026-04-28 18:10 59.15291 4.98162 18346 ft 331 kts
2026-04-28 18:10 59.17606 4.98051 18938 ft 334 kts
2026-04-28 18:11 59.19939 4.97943 19462 ft 336 kts
2026-04-28 18:11 59.22288 4.97826 19978 ft 339 kts 360°
2026-04-28 18:11 59.24657 4.97706 20513 ft 342 kts 359°
2026-04-28 18:11 59.27039 4.97583 21043 ft 344 kts 359°
2026-04-28 18:12 59.29448 4.97456 21553 ft 347 kts 359°
2026-04-28 18:12 59.31877 4.97327 22063 ft 350 kts 359°
2026-04-28 18:12 59.34324 4.97175 22564 ft 354 kts 357°
2026-04-28 18:12 59.36757 4.96269 23049 ft 360 kts 344°
2026-04-28 18:13 59.39053 4.94200 23542 ft 368 kts 332°
2026-04-28 18:13 59.41077 4.91036 24014 ft 378 kts 318°
2026-04-28 18:13 59.42717 4.86922 24413 ft 386 kts 310°
2026-04-28 18:13 59.44256 4.82594 24813 ft 388 kts 310°
2026-04-28 18:14 59.45806 4.78235 25231 ft 390 kts 310°
2026-04-28 18:14 59.47362 4.73862 25629 ft 391 kts 310°
2026-04-28 18:14 59.48931 4.69455 26025 ft 393 kts 310°
2026-04-28 18:14 59.50501 4.65039 26412 ft 395 kts 311°
2026-04-28 18:15 59.52075 4.60603 26788 ft 396 kts 311°
2026-04-28 18:15 59.53655 4.56139 27194 ft 397 kts 310°
2026-04-28 18:15 59.55214 4.51729 27546 ft 398 kts 310°
2026-04-28 18:15 59.56800 4.47237 27889 ft 400 kts 310°
2026-04-28 18:16 59.58394 4.42709 28248 ft 402 kts 310°
2026-04-28 18:16 59.59989 4.38164 28591 ft 404 kts 310°
2026-04-28 18:16 59.61585 4.33596 28928 ft 406 kts 310°
2026-04-28 18:16 59.63194 4.28989 29267 ft 407 kts 310°
2026-04-28 18:17 59.64808 4.24359 29582 ft 409 kts 310°
2026-04-28 18:17 59.66419 4.19723 29894 ft 411 kts 310°
2026-04-28 18:17 59.68042 4.15046 30200 ft 412 kts 310°
2026-04-28 18:17 59.69672 4.10343 30502 ft 414 kts 310°
2026-04-28 18:18 59.71302 4.05627 30761 ft 415 kts 310°
2026-04-28 18:18 59.72915 4.00952 31000 ft 417 kts 310°
2026-04-28 18:18 59.74552 3.96204 31238 ft 418 kts 310°
2026-04-28 18:18 59.75664 3.92982 31363 ft 419 kts 310°
2026-04-28 18:19 59.77846 3.86643 31645 ft 421 kts 310°
2026-04-28 18:19 59.79488 3.81847 31946 ft 420 kts 310°
2026-04-28 18:19 59.81128 3.77044 32273 ft 419 kts 310°
2026-04-28 18:19 59.82756 3.72259 32593 ft 418 kts 310°
2026-04-28 18:20 59.84381 3.67477 32934 ft 416 kts 310°
2026-04-28 18:20 59.86002 3.62705 33290 ft 414 kts 310°
2026-04-28 18:20 59.87611 3.57968 33622 ft 412 kts 310°
2026-04-28 18:20 59.89215 3.53238 33950 ft 411 kts 310°
2026-04-28 18:21 59.90814 3.48517 34265 ft 410 kts 310°
2026-04-28 18:21 59.92406 3.43802 34474 ft 410 kts 310°
2026-04-28 18:21 59.95523 3.34512 34522 ft 399 kts 310°
2026-04-28 18:22 59.98573 3.25374 34521 ft 398 kts 309°
2026-04-28 18:22 60.01654 3.16147 34521 ft 399 kts 309°
2026-04-28 18:23 60.04729 3.06904 34519 ft 399 kts 309°
2026-04-28 18:23 60.07797 2.97626 34515 ft 399 kts 309°
2026-04-28 18:24 60.10374 2.89807 34520 ft 407 kts 309°
2026-04-28 18:24 60.14061 2.78595 34520 ft 421 kts 309°
2026-04-28 18:25 60.17303 2.68686 34519 ft 426 kts 308°
2026-04-28 18:26 60.22183 2.53637 34513 ft 429 kts 308°
2026-04-28 18:26 60.25439 2.43557 34517 ft 430 kts 308°
2026-04-28 18:27 60.28693 2.33453 34510 ft 430 kts 307°
2026-04-28 18:27 60.31938 2.23331 34510 ft 430 kts 307°
2026-04-28 18:28 60.35172 2.13189 34516 ft 430 kts 307°
2026-04-28 18:28 60.38404 2.03030 34521 ft 429 kts 307°
2026-04-28 18:29 60.41627 1.92846 34497 ft 429 kts 307°
2026-04-28 18:29 60.44818 1.82706 34492 ft 430 kts 307°
2026-04-28 18:30 60.48020 1.72493 34506 ft 429 kts 306°
2026-04-28 18:30 60.50695 1.63927 34517 ft 429 kts 306°
2026-04-28 18:31 60.53880 1.53688 34498 ft 429 kts 306°
2026-04-28 18:31 60.57056 1.43418 34505 ft 429 kts 306°
2026-04-28 18:32 60.60222 1.33130 34468 ft 429 kts 305°
2026-04-28 18:32 60.63388 1.22812 34481 ft 430 kts 305°
2026-04-28 18:33 60.66539 1.12531 34481 ft 431 kts 305°
2026-04-28 18:33 60.69724 1.02073 34485 ft 431 kts 305°
2026-04-28 18:34 60.72853 0.91694 34493 ft 432 kts 305°
2026-04-28 18:34 60.75996 0.81239 34494 ft 432 kts 304°
2026-04-28 18:35 60.79141 0.70766 34499 ft 432 kts 304°
2026-04-28 18:35 60.82284 0.60269 34482 ft 432 kts 304°
2026-04-28 18:36 60.85412 0.49761 34489 ft 432 kts 304°
2026-04-28 18:36 60.88528 0.39221 34488 ft 432 kts 304°
2026-04-28 18:37 60.91637 0.28658 34495 ft 432 kts 303°
2026-04-28 18:37 60.94723 0.18141 34492 ft 432 kts 303°
2026-04-28 18:38 60.97815 0.07526 34492 ft 432 kts 303°
2026-04-28 18:38 61.00581 -0.03484 34458 ft 435 kts 290°
2026-04-28 18:39 61.02499 -0.15359 34467 ft 436 kts 290°
2026-04-28 18:39 61.04416 -0.27234 34483 ft 436 kts 290°
2026-04-28 18:40 61.06318 -0.39045 34491 ft 437 kts 290°
2026-04-28 18:40 61.08216 -0.50952 34495 ft 437 kts 290°
2026-04-28 18:41 61.10103 -0.62869 34491 ft 437 kts 289°
2026-04-28 18:41 61.11979 -0.74821 34493 ft 436 kts 289°
2026-04-28 18:42 61.13842 -0.86796 34492 ft 436 kts 289°
2026-04-28 18:42 61.15695 -0.98759 34491 ft 436 kts 289°
2026-04-28 18:43 61.17531 -1.10670 34491 ft 436 kts 289°
2026-04-28 18:43 61.19368 -1.22661 34490 ft 436 kts 289°
2026-04-28 18:44 61.21192 -1.34673 34490 ft 436 kts 289°
2026-04-28 18:44 61.23899 -1.52723 34462 ft 437 kts 288°
2026-04-28 18:45 61.25695 -1.64787 34461 ft 438 kts 288°
2026-04-28 18:45 61.27494 -1.76889 34458 ft 438 kts 288°
2026-04-28 18:46 61.29281 -1.89033 34460 ft 439 kts 288°
2026-04-28 18:46 61.31036 -2.01102 34462 ft 439 kts 288°
2026-04-28 18:47 61.32799 -2.13277 34467 ft 439 kts 287°
2026-04-28 18:47 61.34554 -2.25454 34468 ft 439 kts 287°
2026-04-28 18:48 61.36294 -2.37636 34470 ft 439 kts 287°
2026-04-28 18:48 61.38016 -2.49798 34461 ft 437 kts 287°
2026-04-28 18:49 61.39445 -2.59929 34458 ft 438 kts 287°
2026-04-28 18:49 61.41431 -2.74109 34458 ft 438 kts 287°
2026-04-28 18:50 61.43121 -2.86327 34447 ft 438 kts 286°
2026-04-28 18:50 61.44762 -2.98277 34446 ft 415 kts 286°
2026-04-28 18:51 61.46329 -3.09758 34447 ft 409 kts 286°
2026-04-28 18:51 61.47881 -3.21189 34447 ft 408 kts 285°
2026-04-28 18:52 61.49417 -3.32616 34447 ft 408 kts 285°
2026-04-28 18:52 61.50933 -3.44001 34091 ft 400 kts 285°
2026-04-28 18:53 61.51673 -3.49578 33612 ft 395 kts 285°
2026-04-28 18:53 61.52406 -3.55096 33137 ft 391 kts 285°
2026-04-28 18:53 61.53128 -3.60556 32670 ft 387 kts 285°
2026-04-28 18:53 61.53842 -3.65969 32208 ft 383 kts 285°
2026-04-28 18:54 61.54546 -3.71327 31764 ft 380 kts 285°
2026-04-28 18:54 61.55243 -3.76648 31314 ft 377 kts 285°
2026-04-28 18:54 61.55933 -3.81929 30882 ft 374 kts 285°
2026-04-28 18:54 61.56608 -3.87119 30456 ft 371 kts 285°
2026-04-28 18:55 61.57280 -3.92335 29989 ft 368 kts 285°
2026-04-28 18:55 61.57731 -3.95832 29711 ft 365 kts 285°
2026-04-28 18:55 61.58600 -4.02586 29172 ft 359 kts 285°
2026-04-28 18:55 61.59244 -4.07616 28781 ft 355 kts 285°
2026-04-28 18:56 61.59879 -4.12588 28395 ft 350 kts 285°
2026-04-28 18:56 61.60502 -4.17499 28008 ft 346 kts 285°
2026-04-28 18:56 61.61113 -4.22356 27618 ft 342 kts 285°
2026-04-28 18:56 61.61719 -4.27153 27229 ft 338 kts 284°
2026-04-28 18:57 61.62318 -4.31909 26832 ft 334 kts 284°
2026-04-28 18:57 61.62908 -4.36611 26452 ft 331 kts 284°
2026-04-28 18:57 61.63487 -4.41258 26074 ft 328 kts 284°
2026-04-28 18:57 61.64063 -4.45873 25676 ft 325 kts 284°
2026-04-28 18:58 61.64632 -4.50461 25288 ft 322 kts 284°
2026-04-28 18:58 61.65196 -4.55006 24882 ft 320 kts 284°
2026-04-28 18:58 61.65758 -4.59529 24474 ft 319 kts 284°
2026-04-28 18:58 61.66316 -4.64017 24077 ft 317 kts 284°
2026-04-28 18:59 61.66860 -4.68448 23632 ft 315 kts 283°
2026-04-28 18:59 61.67406 -4.72896 23233 ft 312 kts 283°
2026-04-28 18:59 61.67943 -4.77294 22845 ft 309 kts 283°
2026-04-28 18:59 61.68475 -4.81663 22457 ft 306 kts 283°
2026-04-28 19:00 61.69002 -4.85990 22075 ft 304 kts 283°
2026-04-28 19:00 61.69522 -4.90282 21714 ft 301 kts 283°
2026-04-28 19:00 61.70037 -4.94546 21341 ft 304 kts 283°
2026-04-28 19:00 61.70567 -4.98931 20962 ft 311 kts 282°
2026-04-28 19:01 61.71098 -5.03347 20579 ft 310 kts 282°
2026-04-28 19:01 61.71625 -5.07750 20198 ft 309 kts 282°
2026-04-28 19:01 61.72149 -5.12137 19814 ft 307 kts 282°
2026-04-28 19:01 61.72668 -5.16497 19432 ft 305 kts 282°
2026-04-28 19:02 61.73181 -5.20828 19070 ft 304 kts 281°
2026-04-28 19:02 61.73692 -5.25156 18696 ft 303 kts 281°
2026-04-28 19:02 61.74196 -5.29464 18299 ft 301 kts 281°
2026-04-28 19:02 61.74697 -5.33746 17930 ft 300 kts 281°
2026-04-28 19:03 61.75197 -5.38004 17572 ft 298 kts 281°
2026-04-28 19:03 61.75696 -5.42244 17210 ft 297 kts 281°
2026-04-28 19:03 61.76184 -5.46417 16868 ft 296 kts 281°
2026-04-28 19:03 61.76673 -5.50631 16512 ft 295 kts 281°
2026-04-28 19:04 61.77158 -5.54826 16174 ft 294 kts 281°
2026-04-28 19:04 61.77640 -5.59023 15827 ft 293 kts 281°
2026-04-28 19:04 61.78119 -5.63194 15483 ft 292 kts 281°
2026-04-28 19:04 61.78597 -5.67356 15145 ft 291 kts 281°
2026-04-28 19:05 61.79076 -5.71509 14803 ft 290 kts 281°
2026-04-28 19:05 61.79552 -5.75642 14457 ft 289 kts 280°
2026-04-28 19:05 61.80025 -5.79774 14119 ft 289 kts 280°
2026-04-28 19:05 61.80488 -5.83888 13740 ft 287 kts 279°
2026-04-28 19:06 61.80947 -5.87983 13387 ft 285 kts 279°
2026-04-28 19:06 61.81250 -5.90669 13162 ft 283 kts 279°
2026-04-28 19:06 61.81860 -5.96055 12702 ft 280 kts 279°
2026-04-28 19:06 61.82307 -6.00055 12362 ft 279 kts 279°
2026-04-28 19:07 61.82751 -6.04042 12014 ft 277 kts 279°
2026-04-28 19:07 61.83193 -6.08003 11669 ft 276 kts 279°
2026-04-28 19:07 61.83633 -6.11950 11323 ft 275 kts 279°
2026-04-28 19:07 61.84068 -6.15882 10969 ft 274 kts 279°
2026-04-28 19:08 61.84496 -6.19747 10621 ft 272 kts 279°
2026-04-28 19:08 61.84927 -6.23635 10268 ft 270 kts 279°
2026-04-28 19:08 61.85351 -6.27481 9889 ft 267 kts 279°
2026-04-28 19:08 61.85771 -6.31299 9525 ft 265 kts 279°
2026-04-28 19:09 61.86186 -6.35095 9169 ft 264 kts 279°
2026-04-28 19:09 61.86597 -6.38867 8803 ft 262 kts 279°
2026-04-28 19:09 61.87002 -6.42621 8438 ft 261 kts 279°
2026-04-28 19:09 61.87406 -6.46366 8073 ft 260 kts 278°
2026-04-28 19:10 61.87808 -6.50098 7509 ft 261 kts 278°
2026-04-28 19:10 61.88207 -6.53807 6979 ft 254 kts 278°
2026-04-28 19:10 61.88643 -6.57402 6555 ft 253 kts 285°
2026-04-28 19:10 61.89408 -6.60791 6140 ft 255 kts 293°
2026-04-28 19:11 61.90245 -6.64101 5749 ft 254 kts 292°
2026-04-28 19:11 61.91070 -6.67393 5340 ft 252 kts 292°
2026-04-28 19:11 61.91887 -6.70676 4927 ft 251 kts 292°
2026-04-28 19:11 61.92689 -6.73896 4744 ft 240 kts 292°
2026-04-28 19:12 61.93446 -6.76924 4667 ft 225 kts 292°
2026-04-28 19:12 61.94159 -6.79779 4584 ft 214 kts 292°
2026-04-28 19:12 61.94843 -6.82533 4482 ft 206 kts 292°
2026-04-28 19:12 61.95529 -6.85085 4411 ft 196 kts 295°
2026-04-28 19:13 61.96239 -6.87438 4353 ft 179 kts 297°
2026-04-28 19:13 61.96919 -6.89486 4247 ft 160 kts 298°
2026-04-28 19:13 61.97584 -6.91324 4175 ft 157 kts 300°
2026-04-28 19:13 61.98280 -6.93123 4113 ft 155 kts 301°
2026-04-28 19:14 61.98958 -6.94827 4062 ft 149 kts 301°
2026-04-28 19:14 61.99623 -6.96502 3961 ft 148 kts 301°
2026-04-28 19:14 62.00284 -6.98178 3697 ft 147 kts 301°
2026-04-28 19:14 62.00941 -6.99844 3452 ft 147 kts 301°
2026-04-28 19:15 62.01597 -7.01502 3204 ft 146 kts 301°
2026-04-28 19:15 62.02241 -7.03131 2972 ft 145 kts 301°
2026-04-28 19:15 62.02884 -7.04755 2740 ft 140 kts 300°
2026-04-28 19:15 62.03097 -7.05287 2658 ft 138 kts 300°
2026-04-28 19:16 62.03885 -7.08051 2315 ft 127 kts 277°
2026-04-28 19:16 62.04037 -7.09913 2115 ft 129 kts 271°
2026-04-28 19:16 62.04169 -7.11820 1902 ft 130 kts 271°
2026-04-28 19:16 62.04302 -7.13745 1703 ft 132 kts 272°
2026-04-28 19:17 62.04432 -7.15668 1482 ft 130 kts 272°
2026-04-28 19:17 62.04562 -7.17579 1263 ft 131 kts 272°
2026-04-28 19:17 62.04694 -7.19501 1023 ft 132 kts 272°
2026-04-28 19:17 62.04844 -7.21438 827 ft 137 kts 282°
2026-04-28 19:18 62.05262 -7.23307 633 ft 139 kts 294°
2026-04-28 19:18 62.05717 -7.25123 396 ft 140 kts 291°
2026-04-28 19:18 62.06144 -7.26905 271 ft 122 kts 298°
2026-04-28 19:18 62.06427 -7.28008 284 ft 53 kts 299°
2026-04-28 19:19 62.06498 -7.28163 281 ft 8 kts 34°
2026-04-28 19:19 62.06576 -7.28093 278 ft 9 kts
2026-04-28 19:19 62.06613 -7.28090 279 ft 3 kts 359°
2026-04-28 19:19 62.06623 -7.28091 279 ft 1 kts 357°
2026-04-28 19:20 62.06654 -7.28102 279 ft 5 kts 349°
2026-04-28 19:20 62.06678 -7.28093 279 ft 5 kts 19°
2026-04-28 19:20 62.06703 -7.28066 279 ft 2 kts 28°
2026-04-28 19:20 62.06710 -7.28034 279 ft 2 kts 71°
2026-04-28 19:22 62.06711 -7.28035 279 ft 0 kts 73°